Location: *
(43.9905°S, 176.4941°W)
Time: 11:41:10
(UTC+00:00)

Cosmos 220 Rocket - Pass Details

Date: 08 December 2019
Orbit: 575 x 617 km, 74.0° (Epoch: 24 January)

Event Time Altitude Azimuth Distance (km) Brightness Sun altitude
Exits shadow 11:06:31 77° 52° (NE) 624 3.8 -22.9°
Maximum altitude 11:06:37 78° 71° (ENE) 623 3.9 -22.9°
Drops below altitude 10° 11:10:58 10° 157° (SSE) 1,949 7.4 -23.0°
Sets 11:13:12 0° 158° (SSE) 2,852 8.5 -23.1°
